Regional Weather Roundup
Issued by NWS

Home | Current Version | Previous Version | Graphics & Text | Print | Product List | Glossary On
Versions: 1 2 3 4 5 6 7 8 9 10 11 12 13 14 15 16 17 18 19 20 21 22 23 24 25 26 27 28 29 30 31 32 33 34 35 36 37 38 39 40 41 42 43 44 45 46 47 48 49 50
861
ASUS44 KLIX 251201
RWRLA
LOUISIANA WEATHER ROUNDUP
NATIONAL WEATHER SERVICE NEW ORLEANS LA
600 AM CST TUE NOV 25 2014

NOTE: "FAIR" INDICATES FEW OR NO CLOUDS BELOW 12,000 FEET WITH NO
      SIGNIFICANT WEATHER AND/OR OBSTRUCTIONS TO VISIBILITY.
      SKY/WX - SKY CONDITION AND SIGNIFICANT WEATHER.
      TMP - AIR TEMPERATURE.    DP   - DEWPOINT TEMPERATURE.
      RH  - RELATIVE HUMIDITY.  PRES - PRESSURE.
      HX  - HEAT INDEX.         WCI  - WIND CHILL INDEX.

*  THESE STATIONS ARE NOT NWS OR FAA STATIONS AND ARE NOT UNDER
   NWS QUALITY CONTROL.

LAZ040-048-061>063-065-066-069-251300-
SOUTHEAST LOUISIANA

CITY           SKY/WX    TMP DP  RH WIND       PRES   REMARKS
N.O. AUDUBON     N/A     53  39  58 MISG        N/A
6HR MIN TEMP:  53; 6HR MAX TEMP:  56;

N.O. INTL ARPT MOCLDY    53  38  56 N13       30.13R
6HR MIN TEMP:  53; 6HR MAX TEMP:  56;

N.O. LAKEFRONT MOCLDY    56  39  53 NE18      30.13R
6HR MIN TEMP:  56; 6HR MAX TEMP:  57; 6HR PCP: TRACE;

N.O. DOWNTOWN* PTSUNNY   55  36  47 N7        30.13R
6HR MIN TEMP:  54; 6HR MAX TEMP:  57;

SLIDELL        MOCLDY    49  38  65 N6        30.12R
6HR MIN TEMP:  49; 6HR MAX TEMP:  53;

BATON ROUGE    CLEAR     41  38  89 CALM      30.16R
6HR MIN TEMP:  41; 6HR MAX TEMP:  50;

BOOTHVILLE     CLOUDY    58  42  55 NE17G28   30.08R
6HR MIN TEMP:  58; 6HR MAX TEMP:  60;

BELLE CHASSE   MOCLDY    54  35  48 N7        30.12R
6HR MIN TEMP:  54; 6HR MAX TEMP:  57;

BOGALUSA*      NOT AVBL
NEW ROADS*     NOT AVBL
GONZALES*      NOT AVBL
HAMMOND*       NOT AVBL
HOUMA*         CLOUDY    52  39  62 N9        30.12R
PORT FOURCHON* CLOUDY    57  41  54 NE21G29   30.13R

$$

LAZ041-044-053-054-251300-
SOUTHWEST LOUISIANA

CITY           SKY/WX    TMP DP  RH WIND       PRES   REMARKS
LAKE CHARLES   PTCLDY    46  34  62 N6        30.18S
6HR MIN TEMP:  44; 6HR MAX TEMP:  50;

LAFAYETTE      CLEAR     46  35  65 N6        30.18R
6HR MIN TEMP:  46; 6HR MAX TEMP:  52;

PATTERSON      MOCLDY    48  39  71 N7        30.17R
6HR MIN TEMP:  48; 6HR MAX TEMP:  52;

SALT POINT       N/A     53  39  59 VRB5      30.14R
6HR MIN TEMP:  53; 6HR MAX TEMP:  58;

NEW IBERIA     CLEAR     45  38  76 N7        30.17R
6HR MIN TEMP:  45; 6HR MAX TEMP:  51;

CHENAULT AIRPK NOT AVBL

$$

LAZ027-028-251300-
CENTRAL LOUISIANA

CITY           SKY/WX    TMP DP  RH WIND       PRES   REMARKS
FORT POLK      CLOUDY    44  33  65 N7        30.19R
6HR MIN TEMP:  37; 6HR MAX TEMP:  44;

ALEXANDRIA INT PTCLDY    38  37  97 NW3       30.18R
6HR MIN TEMP:  35; 6HR MAX TEMP:  40;

ALEXANDRIA     PTCLDY    45  32  60 VRB5      30.20R
6HR MIN TEMP:  32; 6HR MAX TEMP:  45;


$$

LAZ001-002-251300-
NORTHWEST LOUISIANA

CITY           SKY/WX    TMP DP  RH WIND       PRES   REMARKS
SHREVEPORT     MOCLDY    37  33  85 CALM      30.21R
6HR MIN TEMP:  34; 6HR MAX TEMP:  44;

BARKSDALE AFB  MOCLDY    33  32  94 CALM      30.22R
6HR MIN TEMP:  31; 6HR MAX TEMP:  37;

DTN SHREVEPORT MOCLDY    37  31  78 CALM      30.22R
6HR MIN TEMP:  34; 6HR MAX TEMP:  42;


$$

LAZ014-016-251300-
NORTHEAST LOUISIANA

CITY           SKY/WX    TMP DP  RH WIND       PRES   REMARKS
MONROE         CLEAR     38  33  82 N6        30.21R WCI  33
6HR MIN TEMP:  35; 6HR MAX TEMP:  39;

TALLULAH       CLEAR     30  27  88 CALM      30.18R
6HR MIN TEMP:  28; 6HR MAX TEMP:  36;


$$




USA.gov is the U.S. government's official web portal to all federal, state and local government web resources and services.